Regional Weather Roundup
Issued by NWS

Home | Current Version | Previous Version | Text Only | Print | Product List | Glossary On
Versions: 1 2 3 4 5 6 7 8 9 10 11 12 13 14 15 16 17 18 19 20 21 22 23 24 25 26 27 28 29 30 31 32 33 34 35 36 37 38 39 40 41 42 43 44 45 46 47 48 49 50
000
ASUS46 KLOX 290813
RWRCA

SOUTHERN CALIFORNIA WEATHER ROUNDUP
NATIONAL WEATHER SERVICE OXNARD CALIFORNIA
100 AM PDT FRI APR 29 2016

NOTE: "FAIR" INDICATES FEW OR NO CLOUDS BELOW 12,000 FEET WITH NO
SIGNIFICANT WEATHER AND/OR OBSTRUCTIONS TO VISIBILITY.

  -  STATIONS PRECEEDED BY AN ASTERISK (*) ARE NOT NWS OR FAA
     STATIONS AND ARE NOT SUBJECT TO NWS AND FAA QUALITY CONTROL.

CAZ041-042-087-290900-
LA AND ORANGE COUNTY COASTAL AREAS


CITY           SKY/WX    TMP DP  RH WIND       PRES   REMARKS
L.A. DOWNTOWN  PTCLDY    57  50  77 CALM      29.97R
L.A. AIRPORT   PTCLDY    58  51  78 E8        29.97S
LONG BEACH     CLOUDY    58  53  84 E6        29.97R

CITY           SKY/WX    TMP DP  RH WIND       PRES   REMARKS
AVALON           N/A     54 N/A N/A MISG        N/A
FULLERTON      CLEAR     59  50  72 SE5       29.97R
*GETTY CENTER    N/A     52  50  93 NE3         N/A
HAWTHORNE      PTCLDY    59  50  72 E6        29.97S
*LEO CARRILLO    N/A     53  48  83 N5          N/A
*LOS ALAMITOS  FAIR      57  51  79 E5        29.97R
*REDONDO BEACH   N/A     55  49  80 CALM      29.97R
SANTA ANA      CLEAR     57  49  74 SE6       29.98R
STA MONICA APT PTCLDY    56  50  80 CALM      29.97S
*STA MON PIER    N/A     57  51  80 E2        29.91S
*UCLA            N/A     54  48  82 N3        29.94S

$$

CAZ547-548-048-290900-
LA COUNTY VALLEYS AND INLAND EMPIRE


CITY           SKY/WX    TMP DP  RH WIND       PRES   REMARKS
BURBANK        CLEAR     55  48  77 CALM      29.96S
VAN NUYS       CLEAR     55  49  80 CALM      29.97R

CITY           SKY/WX    TMP DP  RH WIND       PRES   REMARKS
CORONA AIRPORT SUNNY     49  45  86 CALM      29.98R
*CHATSWORTH      N/A     55  48  78 CALM      29.98S
CHINO          CLEAR     53  47  79 W5        29.99R
*CLAREMONT       N/A     48  44  85 N3          N/A
MARCH AFB      CLEAR     50  48  95 SE6       29.98R
*NORTHRIDGE      N/A     54  46  76 CALM        N/A
ONTARIO        PTCLDY    54  45  71 W3        29.98R
*PASADENA        N/A     55  50  82 E2          N/A
RIVERSIDE      CLEAR     55  44  66 CALM      29.98R
SAN BERNARDINO NOT AVBL
*SAN GABRIEL     N/A     57  51  81 E1        30.04F
*SAN RAFAEL HI   N/A     50  48  94 SW6         N/A
*SAUGUS          N/A     54  44  70 S7          N/A
*WHITEMAN AP   NOT AVBL
*WHITTIER HILL   N/A     50  49  98 SE5         N/A
*WOODLAND HILL   N/A     52  48  87 SE1         N/A

$$

CAZ054-055-290900-
LA AND SAN BERNARDINO COUNTY MOUNTAINS


CITY           SKY/WX    TMP DP  RH WIND       PRES   REMARKS
*ACTON           N/A     49  36  61 N6          N/A
*BIG BEAR AIRP PTSUNNY   32  28  86 CALM      30.01S
*BIG PINES       N/A     36  29  74 CALM        N/A
SANDBERG       CLEAR     50  39  66 N20G28    30.01S

$$

CAZ028-029-059-060-099-290900-
ANTELOPE VALLEY AND SURROUNDING AREAS


CITY           SKY/WX    TMP DP  RH WIND       PRES   REMARKS
LANCASTER      CLEAR     56  39  53 W15       29.94R
PALMDALE       CLEAR     53  38  56 W10       29.95R
*POPPY PARK      N/A     54  38  54 W18G32      N/A

CITY           SKY/WX    TMP DP  RH WIND       PRES   REMARKS
29 PALMS       PTCLDY    59  34  39 NW16G23   29.94R
BARSTOW/DAGGET CLOUDY    61  35  37 W17       29.90R
BISHOP         CLEAR     44  29  55 N7        29.99R
CHINA LAKE     CLEAR     59  31  34 W5        29.89R
EDWARDS AFB    CLEAR     56  37  48 W10       29.91R
MOJAVE         CLEAR     55  37  50 W22       29.93R
NEEDLES        CLOUDY    63  50  62 CALM      29.82R
VICTORVILLE    CLEAR     52  37  58 CALM      29.94R

$$

CAZ039-040-290900-
VENTURA AND SANTA BARBARA COUNTY COAST


CITY           SKY/WX    TMP DP  RH WIND       PRES   REMARKS
CAMARILLO      CLEAR     55  48  77 CALM      29.97R
NWS OXNARD       N/A     54  49  83 CALM      29.95R
OXNARD AIRPORT CLEAR     54  50  86 NE9       29.96R
*POINT MUGU    PTCLDY    55  51  86 SE7       29.97R
SBA APT/GOLETA CLEAR     54  46  74 S3        29.94R
*SANTA BARBARA   N/A     58  49  73 CALM      30.03R
*VENTURA         N/A     53  48  86 CALM      29.95R

$$

CAZ044-045-290900-
VENTURA COUNTY VALLEYS


CITY           SKY/WX    TMP DP  RH WIND       PRES   REMARKS
*SIMI VALLEY     N/A     55  49  79 CALM      29.93R
*WESTLAKE VILL   N/A     52  47  82 CALM      29.96R
*OJAI            N/A     49  46  87 CALM      29.91R
*FILLMORE        N/A     51  46  82 CALM      29.86R

$$

CAZ053-290900-
VENTURA COUNTY MOUNTAINS


CITY           SKY/WX    TMP DP  RH WIND       PRES   REMARKS
*LOCKWOOD VLY    N/A     46  36  66 MISG        N/A
*ROSE VALLEY     N/A     55  39  54 MISG        N/A

$$

CAZ034-035-036-290900-
CENTRAL COAST AND SANTA YNEZ VALLEY


CITY           SKY/WX    TMP DP  RH WIND       PRES   REMARKS
SAN LUIS OBISP PTCLDY    50  46  86 E7        30.01R
SANTA MARIA    CLOUDY    52  49  89 VRB3      30.01S

CITY           SKY/WX    TMP DP  RH WIND       PRES   REMARKS
*CAL POLY SLO    N/A     48  48 100 CALM        N/A
*LOMPOC        CLOUDY    52  49  89 W8        30.02R
*PISMO BEACH     N/A     51  48  88 CALM      30.02R
*SANTA YNEZ    CLOUDY    52  45  76 CALM      30.00S

$$

CAZ037-038-051-290900-
SAN LUIS OBISPO COUNTY INTERIOR AND CUYAMA VALLEY


CITY           SKY/WX    TMP DP  RH WIND       PRES   REMARKS
*CUYAMA          N/A     48  42  77 SE3       29.96S
PASO ROBLES    CLEAR     51  44  77 W6        29.98S

$$

CAZ032-033-061-290900-
SOUTHERN DESERTS


CITY           SKY/WX    TMP DP  RH WIND       PRES   REMARKS
BLYTHE         CLEAR     66  36  32 W10       29.80R
IMPERIAL       CLEAR     62  44  51 W12       29.83R
PALM SPRINGS   CLEAR     65  41  41 NW14      29.84R
THERMAL        CLEAR     66  42  41 NW20G29   29.80R

$$

ELSEWHERE ACROSS THE WESTERN UNITED STATES AND MEXICO


CITY           SKY/WX    TMP DP  RH WIND       PRES   REMARKS
DEATH VALLEY,    N/A     70  40  33 CALM        N/A
DENVER, CO     FLURRIES  35  31  85 SE9       30.02F WCI  28
GRAND CANYON,  CLOUDY    38  36  92 SW7       29.88R WCI  33
HONOLULU, HI   PTCLDY    77  64  65 NE12      30.13R
KAHULUI, MAUI  PTCLDY    75  66  73 E16G22    30.11R
LAKE TAHOE, CA CLEAR     32  29  88 S5        30.05S WCI  27
LAS VEGAS, NV  MOCLDY    56  50  80 SW5       29.81R
MAMMOTH LAKES, FAIR      31  26  82 CALM      30.08R
MEXICO CITY, M CLEAR     64  32  29 S2        30.24S
PHOENIX, AZ    PTCLDY    65  37  35 SW7       29.78S
PORTLAND, OR   CLOUDY    53  43  68 N3        30.12S
RENO, NV       PTCLDY    51  30  44 CALM      30.01R
SALT LAKE CITY CLOUDY    48  33  56 CALM      29.84S
SAN DIEGO, CA  MOCLDY    61  49  64 S6        30.01R
SAN FRANCISCO, PTCLDY    50  45  83 W12       29.99S
SAN JOSE, CA   CLEAR     53  47  79 NW3       30.00R
SEATTLE, WA    CLOUDY    52  43  71 SW8       30.10S
TIJUANA, MEX   MOCLDY    55  43  62 CALM      30.02R

$$

STATION/POSITION TIME  TEMP    WIND        PRES    VSBY  WAVE
                       AIR SEA DIR/SP/G                  HT/PER
                 (UTC) (F)     (DEG/KT/KT) (MB)    (MI)  (FT/S)
POINT ARGUELLO B NOT AVBL
WEST SANTA BARBA 0750   53 52  320/ 21/ 27 1014.7S        10/16
POINT CONCEPTION NOT AVBL
EAST SANTA BARBA 0700   55     280/ 16/ 19 1014.0S         6/ 6
SANTA MONICA BAY 0750   56 58  350/ 12/ 14 1014.8R         6/ 8


USA.gov is the U.S. government's official web portal to all federal, state and local government web resources and services.